Regional Weather Roundup
Issued by NWS Northern Indiana

Home | Current Version | Previous Version | Graphics & Text | Print | Product List | Glossary On
Versions: 1 2 3 4 5 6 7 8 9 10 11 12 13 14 15 16 17 18 19 20 21 22 23 24 25 26 27 28 29 30 31 32 33 34 35 36 37 38 39 40 41 42 43 44 45 46 47 48 49 50
000
ASUS43 KIWX 230700
RWRIWX

KIWX WEATHER ROUNDUP
NATIONAL WEATHER SERVICE NORTHERN INDIANA
200 AM EST SUN NOV 23 2014

NOTE: "FAIR" INDICATES FEW OR NO CLOUDS BELOW 12,000 FEET WITH NO
SIGNIFICANT WEATHER AND/OR OBSTRUCTIONS TO VISIBILITY.

* THESE STATIONS ARE NOT UNDER NWS QUALITY CONTROL. THEY ALSO MAY NOT
  REPORT WEATHER SUCH AS PRECIPITATION OR FOG.

INZ001>027-230800-
NORTHERN INDIANA

CITY           SKY/WX    TMP DP  RH WIND       PRES   REMARKS
GARY*          CLOUDY    52  46  81 S8        29.87F
SOUTH BEND     CLOUDY    51  45  79 SW15G28   29.91F
GOSHEN         CLOUDY    48  44  86 S12       29.93S
ANGOLA*        CLOUDY    50  43  76 SW10      29.94S
FORT WAYNE     LGT RAIN  46  42  86 SW18      29.97F
PERU/GRISSOM   LGT RAIN  47  47 100 S14       29.94F

$$
INZ028>050-230800-
CENTRAL INDIANA

CITY           SKY/WX    TMP DP  RH WIND       PRES   REMARKS
LAFAYETTE      LGT RAIN  47  45  93 S8        29.93F
KOKOMO*        CLOUDY    46  41  81 S9        29.96F
MUNCIE*        RAIN      48  42  80 SW14      30.00S
INDIANAPOLIS   CLOUDY    48  40  73 SE8       29.96F

$$
MIZ043>046-050>051-056>058-064>065-071>073-077>080-230800-
SOUTHWEST LOWER MICHIGAN

CITY           SKY/WX    TMP DP  RH WIND       PRES   REMARKS
BATTLE CREEK   CLOUDY    51  43  74 SW16      29.91S
BENTON HARBOR  CLOUDY    50  45  83 S9        29.88S
COLDWATER*     CLOUDY    51  45  79 SW10G16   29.93S
HILLSDALE*     CLOUDY    51  45  80 SW9       29.93F
HOLLAND        CLOUDY    54  46  74 S16G24    29.87S
GRAND RAPIDS   CLOUDY    47  43  86 S12       29.88S
KALAMAZOO      CLOUDY    50  43  77 SW14      29.90F
STURGIS*       CLOUDY    48  45  87 SW13      29.92S
THREE RIVERS*  CLOUDY    50  45  81 SW10      29.92S

$$
OHZ001>008-015>018-024>025-230800-
NORTHWEST OHIO

CITY           SKY/WX    TMP DP  RH WIND       PRES   REMARKS
DEFIANCE       LGT RAIN  50  40  68 S12       29.97S
FINDLAY        CLOUDY    50  38  63 S13       29.99F
TOLEDO EXPRESS CLOUDY    50  39  66 SW9       29.97F
TOLEDO METCALF CLOUDY    50  38  63 SW12      29.99F
LIMA           LGT RAIN  50  39  66 S13       30.00S

$$
AND FOR LAKE MICHIGAN COASTAL AND OPEN LAKE BUOY OBSERVATIONS

STATION/POSITION TEMP    WIND        PRES    VSBY  WAVE
                 AIR SEA DIR/SP/G                  HT/PER
                 (F)     (DEG/KT/KT) (MB)    (MI)  (FT/S)
CALUMET HARBOR    50     180/ 10/ 15 1010.1F
MICHIGAN CITY     51     170/ 18/ 23   N/A
SAINT JOSEPH      53     180/ 12/ 25 1012.5R
SOUTH LAKE BUOY   46 43  190/ 14/ 16 1010.6F         2/ 4

$$
&&


USA.gov is the U.S. government's official web portal to all federal, state and local government web resources and services.